{"data":{"norad_id":68984,"intl_designator":"2026-100E","name":"IRIDE-MS2-HEO-12","alt_names":[],"object_type":"PAYLOAD","status":"ACTIVE","operator":null,"country":"IT","launch_date":"2026-05-03","launch_site_code":"AFWTR","launch_vehicle":null,"mission":null,"orbit_class":"UNKNOWN","rcs_meters":null,"size_class":null,"mass_kg":null,"dimensions":null,"purposes":[],"wikipedia_slug":null,"has_3d_model":false,"image_url":null,"decayed_at":null,"tle_current":{"epoch":"2026-09-20T04:27:23.143392Z","epoch_age_seconds":46565,"freshness":"FRESH","line1":"1 68984U 26100E   26263.18568453  .00000929  00000+0  99884-4 0  9994","line2":"2 68984  97.7206 158.6200 0003585 169.9435 190.1856 14.90852705 20854","mean_motion":14.90852705,"eccentricity":0.0003585,"inclination_deg":97.7206,"raan_deg":158.62,"arg_perigee_deg":169.9435,"mean_anomaly_deg":190.1856,"bstar":9.9884e-5,"rev_number":2085,"period_min":96.589018832682,"perigee_km":592.77542998677,"apogee_km":597.77536667638,"semimajor_km":6973.4123983316,"source":"CELESTRAK","updated_at":"2026-09-20T09:00:24.598685Z"}}}